Location: Baumgartsau
(48.4586°N, 14.0864°E)
Time: 01:00:42
(UTC+00:00)

SL-16 R/B - Pass Details

Date: 13 August 2020
Orbit: 843 x 845 km, 71.0° (Epoch: 26 September)

Event Time Altitude Azimuth Distance (km) Brightness Sun altitude
Rises 20:22:34 0° 331° (NNW) 3,416 6.9 -17.2°
Reaches altitude 10° 20:25:01 10° 331° (NNW) 2,477 5.9 -17.5°
Maximum altitude 20:30:43 82° 244° (WSW) 859 2.2 -18.1°
Enters shadow 20:33:35 31° 160° (SSE) 1,456 2.9 -18.4°
